Time,TemperatureF,DewpointF,PressureIn,WindDirection,WindDirectionDegrees,WindSpeedMPH,WindSpeedGustMPH,Humidity,HourlyPrecipIn,Conditions,Clouds,dailyrainin,SoftwareType,DateUTC
2013-03-23 00:00:00,66.6,65.7,29.87,NE,41,0.0,7.0,97,0.02,,---,0.00,VWS V14.01,2013-03-23 04:00:00,
2013-03-23 04:15:00,65.5,65.2,29.80,East,86,4.0,6.0,99,0.01,,---,0.01,VWS V14.01,2013-03-23 08:15:00,
2013-03-23 08:30:00,69.6,69.6,29.83,ESE,122,0.0,5.0,100,0.01,,---,0.02,VWS V14.01,2013-03-23 12:30:00,
2013-03-23 11:46:00,83.0,72.2,29.82,South,188,1.0,10.0,70,0.00,,---,0.02,VWS V14.01,2013-03-23 15:46:00,
2013-03-23 11:47:00,82.8,72.0,29.82,SSW,195,6.0,10.0,70,0.00,,---,0.02,VWS V14.01,2013-03-23 15:47:00,
2013-03-23 11:48:00,82.4,72.1,29.82,South,184,3.0,10.0,71,0.00,,---,0.02,VWS V14.01,2013-03-23 15:48:00,
2013-03-23 11:52:00,82.4,72.5,29.82,SW,214,0.0,10.0,72,0.00,,---,0.02,VWS V14.01,2013-03-23 15:52:00,
2013-03-23 11:54:00,82.4,72.1,29.82,SE,140,3.0,10.0,71,0.00,,---,0.02,VWS V14.01,2013-03-23 15:54:00,
2013-03-23 11:56:00,82.6,72.2,29.82,SE,134,0.0,10.0,71,0.00,,---,0.02,VWS V14.01,2013-03-23 15:56:00,
2013-03-23 11:58:00,82.6,72.2,29.82,ESE,123,0.0,10.0,71,0.00,,---,0.02,VWS V14.01,2013-03-23 15:58:00,
2013-03-23 11:59:00,82.6,72.2,29.82,SSW,193,8.0,10.0,71,0.00,,---,0.02,VWS V14.01,2013-03-23 15:59:00,
2013-03-23 12:00:00,82.6,72.7,29.81,South,175,4.0,10.0,72,0.00,,---,0.02,VWS V14.01,2013-03-23 16:00:00,
2013-03-23 12:01:00,82.6,72.7,29.81,South,175,4.0,10.0,72,0.00,,---,0.02,VWS V14.01,2013-03-23 16:01:00,
2013-03-23 12:02:00,82.6,72.2,29.81,South,170,0.0,10.0,71,0.00,,---,0.02,VWS V14.01,2013-03-23 16:02:00,
2013-03-23 12:03:00,82.4,71.6,29.81,South,191,0.0,10.0,70,0.00,,---,0.02,VWS V14.01,2013-03-23 16:03:00,
2013-03-23 12:06:00,82.2,71.9,29.81,SSE,148,1.0,10.0,71,0.00,,---,0.02,VWS V14.01,2013-03-23 16:06:00,
2013-03-23 12:07:00,82.2,71.9,29.81,SSE,148,1.0,10.0,71,0.00,,---,0.02,VWS V14.01,2013-03-23 16:07:00,
2013-03-23 12:09:00,82.4,72.1,29.81,SSE,151,3.0,10.0,71,0.00,,---,0.02,VWS V14.01,2013-03-23 16:09:00,
2013-03-23 12:12:00,82.4,72.5,29.81,SSE,158,4.0,10.0,72,0.00,,---,0.02,VWS V14.01,2013-03-23 16:12:00,
2013-03-23 12:14:00,82.6,72.2,29.81,SW,233,0.0,10.0,71,0.00,,---,0.02,VWS V14.01,2013-03-23 16:14:00,
2013-03-23 12:17:00,82.8,72.4,29.80,SE,146,0.0,10.0,71,0.00,,---,0.02,VWS V14.01,2013-03-23 16:17:00,
2013-03-23 12:18:00,83.2,72.0,29.80,SW,230,4.0,11.0,69,0.00,,---,0.02,VWS V14.01,2013-03-23 16:18:00,
2013-03-23 12:20:00,83.0,71.8,29.80,SSW,194,0.0,11.0,69,0.00,,---,0.02,VWS V14.01,2013-03-23 16:20:00,
2013-03-23 12:21:00,83.2,72.4,29.80,South,180,4.0,11.0,70,0.00,,---,0.02,VWS V14.01,2013-03-23 16:21:00,
2013-03-23 12:22:00,83.2,71.6,29.80,ESE,113,1.0,11.0,68,0.00,,---,0.02,VWS V14.01,2013-03-23 16:22:00,
2013-03-23 12:23:00,83.2,71.6,29.80,ESE,113,1.0,11.0,68,0.00,,---,0.02,VWS V14.01,2013-03-23 16:23:00,
2013-03-23 12:24:00,83.2,71.6,29.80,SE,132,0.0,11.0,68,0.00,,---,0.02,VWS V14.01,2013-03-23 16:24:00,
2013-03-23 12:25:00,83.4,72.2,29.80,SSW,205,0.0,11.0,69,0.00,,---,0.02,VWS V14.01,2013-03-23 16:25:00,
2013-03-23 12:26:00,83.4,71.7,29.80,SW,214,7.0,11.0,68,0.00,,---,0.02,VWS V14.01,2013-03-23 16:26:00,
2013-03-23 12:28:00,83.4,71.7,29.80,SSE,160,4.0,11.0,68,0.00,,---,0.02,VWS V14.01,2013-03-23 16:28:00,
2013-03-23 12:31:00,83.4,71.3,29.80,SSE,157,0.0,11.0,67,0.00,,---,0.02,VWS V14.01,2013-03-23 16:31:00,
2013-03-23 12:32:00,83.2,72.0,29.80,South,187,0.0,11.0,69,0.00,,---,0.02,VWS V14.01,2013-03-23 16:32:00,
2013-03-23 12:33:00,83.4,72.2,29.80,South,187,0.0,11.0,69,0.00,,---,0.02,VWS V14.01,2013-03-23 16:33:00,
2013-03-23 12:34:00,83.4,72.6,29.80,South,186,1.0,11.0,70,0.00,,---,0.02,VWS V14.01,2013-03-23 16:34:00,
2013-03-23 12:35:00,83.4,72.2,29.80,SSW,192,7.0,11.0,69,0.00,,---,0.02,VWS V14.01,2013-03-23 16:35:00,
2013-03-23 12:36:00,83.2,71.6,29.80,SW,219,6.0,11.0,68,0.00,,---,0.02,VWS V14.01,2013-03-23 16:36:00,
2013-03-23 12:37:00,83.2,71.6,29.80,SW,221,7.0,11.0,68,0.00,,---,0.02,VWS V14.01,2013-03-23 16:37:00,
2013-03-23 12:41:00,83.0,71.8,29.80,SSE,150,2.0,11.0,69,0.00,,---,0.02,VWS V14.01,2013-03-23 16:41:00,
2013-03-23 12:43:00,83.0,72.6,29.80,South,186,8.0,11.0,71,0.00,,---,0.02,VWS V14.01,2013-03-23 16:43:00,
2013-03-23 12:46:00,83.0,72.2,29.80,South,172,2.0,11.0,70,0.00,,---,0.02,VWS V14.01,2013-03-23 16:46:00,
2013-03-23 12:48:00,83.4,72.2,29.80,South,191,0.0,11.0,69,0.00,,---,0.02,VWS V14.01,2013-03-23 16:48:00,
2013-03-23 12:49:00,66.0,62.7,29.82,SW,219,3.0,19.0,89,0.04,,---,0.05,VWS V14.01,2013-03-23 16:49:00,
2013-03-23 12:50:00,83.4,72.2,29.80,South,171,5.0,11.0,69,0.00,,---,0.02,VWS V14.01,2013-03-23 16:50:00,
2013-03-23 12:51:00,83.6,72.4,29.80,SSW,193,6.0,11.0,69,0.00,,---,0.02,VWS V14.01,2013-03-23 16:51:00,
2013-03-23 12:52:00,83.6,72.4,29.80,SSW,193,6.0,11.0,69,0.00,,---,0.02,VWS V14.01,2013-03-23 16:52:00,
2013-03-23 12:54:00,60.7,56.5,30.08,NE,46,2.0,9.0,86,0.00,,---,0.00,VWS V14.01,2013-03-23 16:54:00,
2013-03-23 12:55:00,59.0,53.5,30.09,North,0,6.0,16.0,82,0.00,,---,0.01,VWS V14.01,2013-03-23 16:55:00,
2013-03-23 12:58:00,83.6,72.4,29.80,SSW,194,4.0,11.0,69,0.00,,---,0.02,VWS V14.01,2013-03-23 16:58:00,
2013-03-23 12:59:00,63.5,62.0,29.96,SSW,202,0.0,0.0,95,0.00,,---,0.00,VWS V14.01,2013-03-23 16:59:00,
2013-03-23 13:00:00,78.6,65.0,29.97,SSW,202,1.0,8.0,63,0.00,,---,0.01,VWS V14.01,2013-03-23 17:00:00,
2013-03-23 13:01:00,82.8,72.0,29.80,WSW,239,12.0,12.0,70,0.00,,---,0.02,VWS V14.01,2013-03-23 17:01:00,
2013-03-23 13:02:00,82.6,71.8,29.80,SSW,202,8.0,12.0,70,0.00,,---,0.02,VWS V14.01,2013-03-23 17:02:00,
2013-03-23 13:03:00,82.4,72.1,29.80,South,179,4.0,12.0,71,0.00,,---,0.02,VWS V14.01,2013-03-23 17:03:00,
2013-03-23 13:04:00,82.4,72.1,29.80,South,179,4.0,12.0,71,0.00,,---,0.02,VWS V14.01,2013-03-23 17:04:00,
2013-03-23 13:05:00,82.2,71.9,29.80,SSW,210,1.0,12.0,71,0.00,,---,0.02,VWS V14.01,2013-03-23 17:05:00,
2013-03-23 13:08:00,82.0,72.1,29.80,SW,219,7.0,12.0,72,0.00,,---,0.02,VWS V14.01,2013-03-23 17:08:00,
2013-03-23 13:09:00,82.0,72.1,29.80,SSW,195,4.0,12.0,72,0.00,,---,0.02,VWS V14.01,2013-03-23 17:09:00,
2013-03-23 13:11:00,82.2,72.3,29.80,SSW,209,2.0,12.0,72,0.00,,---,0.02,VWS V14.01,2013-03-23 17:11:00,
2013-03-23 13:12:00,82.2,71.9,29.80,South,179,2.0,12.0,71,0.00,,---,0.02,VWS V14.01,2013-03-23 17:12:00,
2013-03-23 13:13:00,82.4,72.5,29.80,South,172,4.0,12.0,72,0.00,,---,0.02,VWS V14.01,2013-03-23 17:13:00,
2013-03-23 13:14:00,82.4,72.5,29.80,South,170,0.0,12.0,72,0.00,,---,0.02,VWS V14.01,2013-03-23 17:14:00,
2013-03-23 13:17:00,82.8,72.4,29.79,SW,214,4.0,12.0,71,0.00,,---,0.02,VWS V14.01,2013-03-23 17:17:00,
2013-03-23 13:18:00,82.8,72.0,29.79,SSW,199,2.0,12.0,70,0.00,,---,0.02,VWS V14.01,2013-03-23 17:18:00,
2013-03-23 13:19:00,83.0,72.2,29.79,South,174,0.0,12.0,70,0.00,,---,0.02,VWS V14.01,2013-03-23 17:19:00,
2013-03-23 13:22:00,83.0,72.6,29.79,South,191,5.0,12.0,71,0.00,,---,0.02,VWS V14.01,2013-03-23 17:22:00,
2013-03-23 13:23:00,83.0,72.2,29.79,SSW,209,4.0,12.0,70,0.00,,---,0.02,VWS V14.01,2013-03-23 17:23:00,
2013-03-23 13:24:00,83.0,72.2,29.79,SSW,209,4.0,12.0,70,0.00,,---,0.02,VWS V14.01,2013-03-23 17:24:00,
2013-03-23 13:27:00,82.8,72.4,29.79,SSW,192,6.0,12.0,71,0.00,,---,0.02,VWS V14.01,2013-03-23 17:27:00,
2013-03-23 13:30:00,82.8,72.4,29.79,SSW,199,5.0,12.0,71,0.00,,---,0.02,VWS V14.01,2013-03-23 17:30:00,
2013-03-23 13:34:00,82.6,72.2,29.79,SSW,194,1.0,12.0,71,0.00,,---,0.02,VWS V14.01,2013-03-23 17:34:00,
2013-03-23 13:35:00,82.6,72.2,29.79,SSW,199,0.0,12.0,71,0.00,,---,0.02,VWS V14.01,2013-03-23 17:35:00,
2013-03-23 14:13:00,82.0,71.7,29.80,South,186,0.0,12.0,71,0.00,,---,0.02,VWS V14.01,2013-03-23 18:13:00,
2013-03-23 14:19:00,82.6,72.2,29.79,SW,231,0.0,12.0,71,0.00,,---,0.02,VWS V14.01,2013-03-23 18:19:00,
2013-03-23 14:23:00,83.0,72.2,29.79,South,174,0.0,12.0,70,0.00,,---,0.02,VWS V14.01,2013-03-23 18:23:00,
2013-03-23 14:25:00,83.0,72.6,29.79,South,190,6.0,12.0,71,0.00,,---,0.02,VWS V14.01,2013-03-23 18:25:00,
2013-03-23 14:30:00,82.8,72.4,29.79,SSW,192,6.0,12.0,71,0.00,,---,0.02,VWS V14.01,2013-03-23 18:30:00,
2013-03-23 14:31:00,82.8,72.4,29.79,SSW,202,8.0,12.0,71,0.00,,---,0.02,VWS V14.01,2013-03-23 18:31:00,
2013-03-23 14:35:00,82.8,72.4,29.79,SSW,204,0.0,12.0,71,0.00,,---,0.02,VWS V14.01,2013-03-23 18:35:00,
2013-03-23 14:37:00,82.6,72.2,29.79,SSW,194,1.0,12.0,71,0.00,,---,0.02,VWS V14.01,2013-03-23 18:37:00,
2013-03-23 14:41:00,82.8,72.9,29.79,South,188,5.0,12.0,72,0.00,,---,0.02,VWS V14.01,2013-03-23 18:41:00,
2013-03-23 14:42:00,83.0,72.6,29.79,South,185,6.0,12.0,71,0.00,,---,0.02,VWS V14.01,2013-03-23 18:42:00,
2013-03-23 14:44:00,83.0,72.6,29.79,SSW,193,1.0,12.0,71,0.00,,---,0.02,VWS V14.01,2013-03-23 18:44:00,
2013-03-23 14:45:00,83.2,72.8,29.79,SSW,196,0.0,12.0,71,0.00,,---,0.02,VWS V14.01,2013-03-23 18:45:00,
2013-03-23 14:47:00,83.2,72.8,29.79,ESE,110,0.0,12.0,71,0.00,,---,0.02,VWS V14.01,2013-03-23 18:47:00,
2013-03-23 14:50:00,82.8,72.4,29.78,SW,215,8.0,12.0,71,0.00,,---,0.02,VWS V14.01,2013-03-23 18:50:00,
2013-03-23 14:51:00,82.8,72.4,29.78,SW,215,2.0,12.0,71,0.00,,---,0.02,VWS V14.01,2013-03-23 18:51:00,
2013-03-23 14:52:00,83.0,73.1,29.78,South,187,4.0,12.0,72,0.00,,---,0.02,VWS V14.01,2013-03-23 18:52:00,
2013-03-23 14:56:00,82.8,72.4,29.78,SSW,211,2.0,12.0,71,0.00,,---,0.02,VWS V14.01,2013-03-23 18:56:00,
2013-03-23 14:59:00,83.0,73.1,29.78,SSW,207,0.0,12.0,72,0.00,,---,0.02,VWS V14.01,2013-03-23 18:59:00,
2013-03-23 15:01:00,83.0,72.6,29.78,WSW,243,5.0,12.0,71,0.00,,---,0.02,VWS V14.01,2013-03-23 19:01:00,
2013-03-23 15:02:00,82.6,72.2,29.78,SW,217,0.0,12.0,71,0.00,,---,0.02,VWS V14.01,2013-03-23 19:02:00,
2013-03-23 15:03:00,82.6,72.7,29.78,SSE,168,0.0,12.0,72,0.00,,---,0.02,VWS V14.01,2013-03-23 19:03:00,
2013-03-23 15:07:00,82.6,72.7,29.78,SSW,206,6.0,12.0,72,0.00,,---,0.02,VWS V14.01,2013-03-23 19:07:00,
2013-03-23 15:08:00,82.6,72.2,29.78,SSW,203,0.0,12.0,71,0.00,,---,0.02,VWS V14.01,2013-03-23 19:08:00,
2013-03-23 15:12:00,83.0,72.6,29.78,South,181,0.0,12.0,71,0.00,,---,0.02,VWS V14.01,2013-03-23 19:12:00,
2013-03-23 15:15:00,83.0,72.6,29.78,South,185,0.0,12.0,71,0.00,,---,0.02,VWS V14.01,2013-03-23 19:15:00,
2013-03-23 15:18:00,83.2,72.4,29.77,SSW,196,0.0,12.0,70,0.00,,---,0.02,VWS V14.01,2013-03-23 19:18:00,
2013-03-23 15:19:00,83.2,72.4,29.77,South,176,0.0,12.0,70,0.00,,---,0.02,VWS V14.01,2013-03-23 19:19:00,
2013-03-23 15:24:00,83.2,72.4,29.77,SSE,153,0.0,12.0,70,0.00,,---,0.02,VWS V14.01,2013-03-23 19:24:00,
2013-03-23 15:29:00,83.0,72.6,29.77,ESE,110,0.0,12.0,71,0.00,,---,0.02,VWS V14.01,2013-03-23 19:29:00,
2013-03-23 15:30:00,83.2,72.8,29.77,South,186,5.0,12.0,71,0.00,,---,0.02,VWS V14.01,2013-03-23 19:30:00,
2013-03-23 15:33:00,83.0,72.2,29.77,South,180,0.0,12.0,70,0.00,,---,0.02,VWS V14.01,2013-03-23 19:33:00,
2013-03-23 15:36:00,83.4,72.2,29.77,SSE,153,0.0,12.0,69,0.00,,---,0.02,VWS V14.01,2013-03-23 19:36:00,
2013-03-23 15:40:00,83.8,73.0,29.77,SSE,153,0.0,12.0,70,0.00,,---,0.02,VWS V14.01,2013-03-23 19:40:00,
2013-03-23 15:41:00,84.0,73.2,29.77,SSE,154,2.0,12.0,70,0.00,,---,0.02,VWS V14.01,2013-03-23 19:41:00,
2013-03-23 15:42:00,84.0,72.7,29.77,ESE,122,5.0,12.0,69,0.00,,---,0.02,VWS V14.01,2013-03-23 19:42:00,
2013-03-23 15:43:00,84.0,72.3,29.77,SSW,200,0.0,12.0,68,0.00,,---,0.02,VWS V14.01,2013-03-23 19:43:00,
2013-03-23 15:45:00,84.1,72.4,29.77,SSW,197,1.0,12.0,68,0.00,,---,0.02,VWS V14.01,2013-03-23 19:45:00,
2013-03-23 15:48:00,84.1,72.0,29.76,South,187,0.0,12.0,67,0.00,,---,0.02,VWS V14.01,2013-03-23 19:48:00,
2013-03-23 15:49:00,84.0,72.3,29.76,South,189,0.0,12.0,68,0.00,,---,0.02,VWS V14.01,2013-03-23 19:49:00,
2013-03-23 15:51:00,84.0,71.9,29.76,South,190,0.0,12.0,67,0.00,,---,0.02,VWS V14.01,2013-03-23 19:51:00,
2013-03-23 15:55:00,84.1,72.4,29.76,SW,233,5.0,12.0,68,0.00,,---,0.02,VWS V14.01,2013-03-23 19:55:00,
2013-03-23 15:57:00,84.0,72.3,29.76,SSW,203,0.0,12.0,68,0.00,,---,0.02,VWS V14.01,2013-03-23 19:57:00,
2013-03-23 15:58:00,83.8,71.7,29.76,SSW,202,0.0,12.0,67,0.00,,---,0.02,VWS V14.01,2013-03-23 19:58:00,
2013-03-23 15:59:00,83.8,71.7,29.76,SSW,204,0.0,12.0,67,0.00,,---,0.02,VWS V14.01,2013-03-23 19:59:00,
2013-03-23 16:01:00,83.6,71.9,29.76,South,188,5.0,12.0,68,0.00,,---,0.02,VWS V14.01,2013-03-23 20:01:00,
2013-03-23 16:02:00,83.4,71.7,29.76,South,189,4.0,12.0,68,0.00,,---,0.02,VWS V14.01,2013-03-23 20:02:00,
2013-03-23 16:06:00,83.2,72.0,29.75,South,169,4.0,12.0,69,0.00,,---,0.02,VWS V14.01,2013-03-23 20:06:00,
2013-03-23 16:07:00,82.8,72.0,29.75,SSW,213,0.0,12.0,70,0.00,,---,0.02,VWS V14.01,2013-03-23 20:07:00,
2013-03-23 16:08:00,82.8,72.0,29.75,SSW,212,0.0,12.0,70,0.00,,---,0.02,VWS V14.01,2013-03-23 20:08:00,
2013-03-23 16:14:00,82.4,72.1,29.75,South,175,7.0,12.0,71,0.00,,---,0.02,VWS V14.01,2013-03-23 20:14:00,
2013-03-23 16:15:00,82.4,72.1,29.75,South,181,2.0,12.0,71,0.00,,---,0.02,VWS V14.01,2013-03-23 20:15:00,
2013-03-23 16:16:00,82.4,72.1,29.75,South,180,0.0,12.0,71,0.00,,---,0.02,VWS V14.01,2013-03-23 20:16:00,
2013-03-23 16:17:00,82.6,72.2,29.75,SSE,150,1.0,12.0,71,0.00,,---,0.02,VWS V14.01,2013-03-23 20:17:00,
2013-03-23 16:21:00,82.6,72.2,29.75,South,183,1.0,12.0,71,0.00,,---,0.02,VWS V14.01,2013-03-23 20:21:00,
2013-03-23 16:22:00,82.6,72.2,29.75,South,173,1.0,12.0,71,0.00,,---,0.02,VWS V14.01,2013-03-23 20:22:00,
2013-03-23 16:23:00,82.6,71.8,29.75,SW,218,0.0,12.0,70,0.00,,---,0.02,VWS V14.01,2013-03-23 20:23:00,
2013-03-23 16:29:00,83.2,72.4,29.75,SSE,165,4.0,12.0,70,0.00,,---,0.02,VWS V14.01,2013-03-23 20:29:00,
2013-03-23 16:30:00,83.2,72.4,29.75,SSE,165,0.0,12.0,70,0.00,,---,0.02,VWS V14.01,2013-03-23 20:30:00,
2013-03-23 16:35:00,82.6,71.8,29.74,SE,127,1.0,12.0,70,0.00,,---,0.02,VWS V14.01,2013-03-23 20:35:00,
2013-03-23 16:37:00,82.6,72.2,29.74,SE,126,1.0,12.0,71,0.00,,---,0.02,VWS V14.01,2013-03-23 20:37:00,
2013-03-23 16:39:00,82.6,72.2,29.74,SE,139,4.0,12.0,71,0.00,,---,0.02,VWS V14.01,2013-03-23 20:39:00,
2013-03-23 16:43:00,82.4,72.1,29.74,NE,38,1.0,12.0,71,0.00,,---,0.02,VWS V14.01,2013-03-23 20:43:00,
2013-03-23 16:47:00,82.4,72.1,29.74,SW,214,0.0,12.0,71,0.00,,---,0.02,VWS V14.01,2013-03-23 20:47:00,
2013-03-23 16:48:00,82.4,72.1,29.74,SSW,194,0.0,12.0,71,0.00,,---,0.02,VWS V14.01,2013-03-23 20:48:00,
2013-03-23 16:49:00,82.4,72.1,29.73,SSW,194,1.0,12.0,71,0.00,,---,0.02,VWS V14.01,2013-03-23 20:49:00,
2013-03-23 16:52:00,82.0,71.7,29.73,SW,228,6.0,12.0,71,0.00,,---,0.02,VWS V14.01,2013-03-23 20:52:00,
2013-03-23 16:53:00,81.8,71.9,29.73,SSE,155,2.0,12.0,72,0.00,,---,0.02,VWS V14.01,2013-03-23 20:53:00,
2013-03-23 16:57:00,81.6,71.7,29.73,SE,125,0.0,12.0,72,0.00,,---,0.02,VWS V14.01,2013-03-23 20:57:00,
2013-03-23 17:00:00,80.7,72.4,29.73,SSE,164,0.0,12.0,76,0.00,,---,0.02,VWS V14.01,2013-03-23 21:00:00,
2013-03-23 17:01:00,81.6,72.1,29.73,SE,141,1.0,12.0,73,0.00,,---,0.02,VWS V14.01,2013-03-23 21:01:00,
2013-03-23 17:02:00,82.0,72.1,29.73,SSE,159,0.0,12.0,72,0.00,,---,0.02,VWS V14.01,2013-03-23 21:02:00,
2013-03-23 17:05:00,82.0,72.1,29.72,SSE,158,0.0,12.0,72,0.00,,---,0.02,VWS V14.01,2013-03-23 21:05:00,
2013-03-23 17:08:00,82.2,72.3,29.72,SSE,164,2.0,12.0,72,0.00,,---,0.02,VWS V14.01,2013-03-23 21:08:00,
2013-03-23 17:12:00,82.2,72.3,29.72,SSW,203,7.0,12.0,72,0.00,,---,0.02,VWS V14.01,2013-03-23 21:12:00,
2013-03-23 17:14:00,82.4,72.5,29.72,ESE,113,1.0,12.0,72,0.00,,---,0.02,VWS V14.01,2013-03-23 21:14:00,
2013-03-23 17:16:00,82.2,72.3,29.72,SSW,194,4.0,12.0,72,0.00,,---,0.02,VWS V14.01,2013-03-23 21:16:00,
2013-03-23 17:19:00,82.2,72.3,29.72,South,188,5.0,12.0,72,0.00,,---,0.02,VWS V14.01,2013-03-23 21:19:00,
2013-03-23 17:20:00,82.0,72.5,29.72,South,188,0.0,12.0,73,0.00,,---,0.02,VWS V14.01,2013-03-23 21:20:00,
2013-03-23 17:23:00,82.2,72.7,29.72,South,176,3.0,12.0,73,0.00,,---,0.02,VWS V14.01,2013-03-23 21:23:00,
2013-03-23 17:24:00,82.2,72.3,29.72,East,98,0.0,12.0,72,0.00,,---,0.02,VWS V14.01,2013-03-23 21:24:00,
2013-03-23 17:25:00,82.2,72.7,29.72,SE,135,1.0,12.0,73,0.00,,---,0.02,VWS V14.01,2013-03-23 21:25:00,
2013-03-23 17:30:00,82.0,72.1,29.72,SSW,199,2.0,12.0,72,0.00,,---,0.02,VWS V14.01,2013-03-23 21:30:00,
2013-03-23 17:34:00,81.2,72.1,29.72,SSW,208,4.0,12.0,74,0.00,,---,0.02,VWS V14.01,2013-03-23 21:34:00,
2013-03-23 17:35:00,81.2,72.1,29.72,SSW,207,10.0,12.0,74,0.00,,---,0.02,VWS V14.01,2013-03-23 21:35:00,
2013-03-23 17:38:00,81.2,72.1,29.72,SSW,208,1.0,12.0,74,0.00,,---,0.02,VWS V14.01,2013-03-23 21:38:00,
2013-03-23 17:39:00,81.2,72.1,29.72,South,184,6.0,12.0,74,0.00,,---,0.02,VWS V14.01,2013-03-23 21:39:00,
2013-03-23 17:40:00,81.2,72.1,29.72,South,184,6.0,12.0,74,0.00,,---,0.02,VWS V14.01,2013-03-23 21:40:00,
2013-03-23 17:41:00,81.2,72.1,29.72,SE,136,4.0,12.0,74,0.00,,---,0.02,VWS V14.01,2013-03-23 21:41:00,
2013-03-23 17:49:00,81.4,72.3,29.72,South,170,2.0,12.0,74,0.00,,---,0.02,VWS V14.01,2013-03-23 21:49:00,
2013-03-23 17:50:00,81.4,72.3,29.72,South,188,5.0,12.0,74,0.00,,---,0.02,VWS V14.01,2013-03-23 21:50:00,
2013-03-23 17:52:00,81.4,72.3,29.72,SW,215,5.0,12.0,74,0.00,,---,0.02,VWS V14.01,2013-03-23 21:52:00,
2013-03-23 17:54:00,81.2,72.1,29.72,SSW,198,5.0,12.0,74,0.00,,---,0.02,VWS V14.01,2013-03-23 21:54:00,
2013-03-23 17:57:00,81.1,72.0,29.72,South,191,2.0,12.0,74,0.00,,---,0.02,VWS V14.01,2013-03-23 21:57:00,
2013-03-23 18:01:00,80.7,72.0,29.72,SSW,210,1.0,12.0,75,0.00,,---,0.02,VWS V14.01,2013-03-23 22:01:00,
2013-03-23 18:05:00,80.7,72.4,29.73,SSE,164,0.0,12.0,76,0.00,,---,0.02,VWS V14.01,2013-03-23 22:05:00,
2013-03-23 18:07:00,80.3,72.1,29.73,SSW,202,4.0,4.0,76,0.00,,---,0.02,VWS V14.01,2013-03-23 22:07:00,
2013-03-23 18:10:00,80.1,71.9,29.73,SSW,195,2.0,4.0,76,0.00,,---,0.02,VWS V14.01,2013-03-23 22:10:00,
2013-03-23 18:11:00,80.1,71.9,29.73,SSW,195,2.0,4.0,76,0.00,,---,0.02,VWS V14.01,2013-03-23 22:11:00,
2013-03-23 18:12:00,79.9,71.7,29.73,SSW,195,0.0,4.0,76,0.00,,---,0.02,VWS V14.01,2013-03-23 22:12:00,
2013-03-23 18:17:00,79.4,71.9,29.73,SSW,192,5.0,5.0,78,0.00,,---,0.02,VWS V14.01,2013-03-23 22:17:00,
2013-03-23 18:20:00,79.2,71.8,29.72,SSW,194,8.0,8.0,78,0.00,,---,0.02,VWS V14.01,2013-03-23 22:20:00,
2013-03-23 18:23:00,78.6,71.6,29.72,SE,146,2.0,8.0,79,0.00,,---,0.02,VWS V14.01,2013-03-23 22:23:00,
2013-03-23 18:26:00,78.5,71.4,29.72,SSW,213,1.0,8.0,79,0.00,,---,0.02,VWS V14.01,2013-03-23 22:26:00,
2013-03-23 18:28:00,78.5,71.4,29.72,South,186,1.0,8.0,79,0.00,,---,0.02,VWS V14.01,2013-03-23 22:28:00,
2013-03-23 18:30:00,78.5,71.4,29.72,South,186,0.0,8.0,79,0.00,,---,0.02,VWS V14.01,2013-03-23 22:30:00,
2013-03-23 18:32:00,78.3,71.6,29.72,SSE,153,2.0,8.0,80,0.00,,---,0.02,VWS V14.01,2013-03-23 22:32:00,
2013-03-23 18:34:00,78.3,71.6,29.72,SSE,155,2.0,8.0,80,0.00,,---,0.02,VWS V14.01,2013-03-23 22:34:00,
2013-03-23 18:37:00,78.1,71.4,29.73,South,176,2.0,8.0,80,0.00,,---,0.02,VWS V14.01,2013-03-23 22:37:00,
2013-03-23 18:39:00,77.9,71.2,29.73,South,172,2.0,8.0,80,0.00,,---,0.02,VWS V14.01,2013-03-23 22:39:00,
2013-03-23 18:40:00,77.9,71.6,29.73,South,175,1.0,8.0,81,0.00,,---,0.02,VWS V14.01,2013-03-23 22:40:00,
2013-03-23 18:42:00,77.7,71.4,29.73,SSE,165,4.0,8.0,81,0.00,,---,0.02,VWS V14.01,2013-03-23 22:42:00,
2013-03-23 18:47:00,77.2,71.3,29.73,SW,229,4.0,8.0,82,0.00,,---,0.02,VWS V14.01,2013-03-23 22:47:00,
2013-03-23 18:48:00,77.2,71.3,29.73,SW,226,7.0,8.0,82,0.00,,---,0.02,VWS V14.01,2013-03-23 22:48:00,
2013-03-23 18:49:00,77.2,71.6,29.73,SW,224,6.0,8.0,83,0.00,,---,0.02,VWS V14.01,2013-03-23 22:49:00,
2013-03-23 18:53:00,77.0,71.4,29.73,SW,226,1.0,8.0,83,0.00,,---,0.02,VWS V14.01,2013-03-23 22:53:00,
2013-03-23 18:55:00,76.7,71.2,29.73,SSW,204,0.0,8.0,83,0.00,,---,0.02,VWS V14.01,2013-03-23 22:55:00,
2013-03-23 18:58:00,76.5,71.3,29.73,South,191,0.0,8.0,84,0.00,,---,0.02,VWS V14.01,2013-03-23 22:58:00,
2013-03-23 19:01:00,76.1,71.3,29.73,South,181,4.0,8.0,85,0.00,,---,0.02,VWS V14.01,2013-03-23 23:01:00,
2013-03-23 19:02:00,76.1,71.3,29.73,South,169,5.0,8.0,85,0.00,,---,0.02,VWS V14.01,2013-03-23 23:02:00,
2013-03-23 19:07:00,76.0,71.2,29.73,South,172,4.0,8.0,85,0.00,,---,0.02,VWS V14.01,2013-03-23 23:07:00,
2013-03-23 19:10:00,75.8,71.0,29.73,ESE,117,4.0,8.0,85,0.00,,---,0.02,VWS V14.01,2013-03-23 23:10:00,
2013-03-23 19:14:00,75.6,71.1,29.73,SE,127,1.0,8.0,86,0.00,,---,0.02,VWS V14.01,2013-03-23 23:14:00,
2013-03-23 19:18:00,75.4,70.9,29.73,South,175,4.0,8.0,86,0.00,,---,0.02,VWS V14.01,2013-03-23 23:18:00,
2013-03-23 19:19:00,75.3,70.8,29.73,South,176,0.0,8.0,86,0.00,,---,0.02,VWS V14.01,2013-03-23 23:19:00,
2013-03-23 19:24:00,75.1,71.0,29.73,South,174,1.0,8.0,87,0.00,,---,0.02,VWS V14.01,2013-03-23 23:24:00,
2013-03-23 19:28:00,74.9,70.8,29.73,South,174,0.0,8.0,87,0.00,,---,0.02,VWS V14.01,2013-03-23 23:28:00,
2013-03-23 19:30:00,74.9,70.8,29.73,South,174,0.0,8.0,87,0.00,,---,0.02,VWS V14.01,2013-03-23 23:30:00,
2013-03-23 19:34:00,74.7,70.9,29.74,SE,127,3.0,8.0,88,0.00,,---,0.02,VWS V14.01,2013-03-23 23:34:00,
2013-03-23 19:38:00,74.6,70.8,29.74,ESE,108,1.0,8.0,88,0.00,,---,0.02,VWS V14.01,2013-03-23 23:38:00,
2013-03-23 19:41:00,74.6,70.8,29.74,ESE,108,2.0,8.0,88,0.00,,---,0.02,VWS V14.01,2013-03-23 23:41:00,
2013-03-23 19:42:00,74.4,70.6,29.74,ESE,105,0.0,8.0,88,0.00,,---,0.02,VWS V14.01,2013-03-23 23:42:00,
2013-03-23 19:44:00,74.4,70.6,29.74,SSE,167,3.0,8.0,88,0.00,,---,0.02,VWS V14.01,2013-03-23 23:44:00,
2013-03-23 19:47:00,74.2,70.8,29.74,SSE,148,0.0,8.0,89,0.00,,---,0.02,VWS V14.01,2013-03-23 23:47:00,
2013-03-23 19:48:00,74.2,70.8,29.74,SSE,148,0.0,8.0,89,0.00,,---,0.02,VWS V14.01,2013-03-23 23:48:00,
2013-03-23 19:50:00,74.2,70.8,29.74,SSE,148,0.0,8.0,89,0.00,,---,0.02,VWS V14.01,2013-03-23 23:50:00,
2013-03-23 19:51:00,74.2,70.8,29.74,SSE,147,0.0,8.0,89,0.00,,---,0.02,VWS V14.01,2013-03-23 23:51:00,
2013-03-23 19:55:00,74.0,70.6,29.74,SE,135,2.0,8.0,89,0.00,,---,0.02,VWS V14.01,2013-03-23 23:55:00,
2013-03-23 19:57:00,74.0,70.9,29.74,SE,137,0.0,8.0,90,0.00,,---,0.02,VWS V14.01,2013-03-23 23:57:00,
2013-03-23 20:02:00,73.9,70.8,29.74,SE,124,2.0,8.0,90,0.00,,---,0.02,VWS V14.01,2013-03-24 00:02:00,
2013-03-23 20:03:00,73.9,70.8,29.75,SE,124,0.0,8.0,90,0.00,,---,0.02,VWS V14.01,2013-03-24 00:03:00,
2013-03-23 20:04:00,73.9,70.8,29.75,SE,124,1.0,8.0,90,0.00,,---,0.02,VWS V14.01,2013-03-24 00:04:00,
2013-03-23 20:09:00,73.7,70.6,29.75,SE,124,0.0,8.0,90,0.00,,---,0.02,VWS V14.01,2013-03-24 00:09:00,
2013-03-23 20:12:00,73.7,70.9,29.75,SE,124,0.0,8.0,91,0.00,,---,0.02,VWS V14.01,2013-03-24 00:12:00,
2013-03-23 20:14:00,73.5,70.7,29.75,SSW,194,0.0,8.0,91,0.00,,---,0.02,VWS V14.01,2013-03-24 00:14:00,
2013-03-23 20:17:00,73.5,70.7,29.75,SE,137,0.0,8.0,91,0.00,,---,0.02,VWS V14.01,2013-03-24 00:17:00,
2013-03-23 20:20:00,73.5,70.7,29.75,SE,137,1.0,8.0,91,0.00,,---,0.02,VWS V14.01,2013-03-24 00:20:00,
2013-03-23 20:22:00,73.3,70.5,29.75,SE,130,0.0,8.0,91,0.00,,---,0.02,VWS V14.01,2013-03-24 00:22:00,
2013-03-23 20:24:00,73.3,70.5,29.75,SE,130,0.0,8.0,91,0.00,,---,0.02,VWS V14.01,2013-03-24 00:24:00,
2013-03-23 20:27:00,73.3,70.5,29.75,SE,130,0.0,8.0,91,0.00,,---,0.02,VWS V14.01,2013-03-24 00:27:00,
2013-03-23 20:30:00,73.3,70.5,29.75,SE,130,0.0,8.0,91,0.00,,---,0.02,VWS V14.01,2013-03-24 00:30:00,
2013-03-23 20:32:00,73.2,70.4,29.75,SE,130,1.0,8.0,91,0.00,,---,0.02,VWS V14.01,2013-03-24 00:32:00,
2013-03-23 20:33:00,73.2,70.4,29.75,SE,130,1.0,8.0,91,0.00,,---,0.02,VWS V14.01,2013-03-24 00:33:00,
2013-03-23 20:35:00,73.2,70.7,29.75,SE,130,0.0,8.0,92,0.00,,---,0.02,VWS V14.01,2013-03-24 00:35:00,
2013-03-23 20:37:00,73.2,70.7,29.75,SE,130,0.0,8.0,92,0.00,,---,0.02,VWS V14.01,2013-03-24 00:37:00,
2013-03-23 20:39:00,73.2,70.7,29.75,South,179,4.0,8.0,92,0.00,,---,0.02,VWS V14.01,2013-03-24 00:39:00,
2013-03-23 20:40:00,73.0,70.5,29.75,South,179,0.0,8.0,92,0.00,,---,0.02,VWS V14.01,2013-03-24 00:40:00,
2013-03-23 20:42:00,73.0,70.5,29.75,South,179,0.0,8.0,92,0.00,,---,0.02,VWS V14.01,2013-03-24 00:42:00,
2013-03-23 20:46:00,73.0,70.5,29.75,SSE,159,0.0,8.0,92,0.00,,---,0.02,VWS V14.01,2013-03-24 00:46:00,
2013-03-23 20:47:00,73.0,70.5,29.75,SSE,159,0.0,8.0,92,0.00,,---,0.02,VWS V14.01,2013-03-24 00:47:00,
2013-03-23 20:51:00,73.0,70.5,29.75,SSE,159,1.0,8.0,92,0.00,,---,0.02,VWS V14.01,2013-03-24 00:51:00,
2013-03-23 20:53:00,72.8,70.3,29.75,ESE,120,1.0,8.0,92,0.00,,---,0.02,VWS V14.01,2013-03-24 00:53:00,
2013-03-23 20:55:00,72.8,70.3,29.75,ESE,120,0.0,8.0,92,0.00,,---,0.02,VWS V14.01,2013-03-24 00:55:00,
2013-03-23 20:58:00,72.8,70.7,29.75,ESE,120,0.0,8.0,93,0.00,,---,0.02,VWS V14.01,2013-03-24 00:58:00,
2013-03-23 20:59:00,72.8,70.7,29.75,ESE,120,0.0,8.0,93,0.00,,---,0.02,VWS V14.01,2013-03-24 00:59:00,
2013-03-23 21:00:00,72.8,70.7,29.75,ESE,120,0.0,8.0,93,0.00,,---,0.02,VWS V14.01,2013-03-24 01:00:00,
2013-03-23 21:04:00,72.8,70.7,29.75,ESE,120,0.0,8.0,93,0.00,,---,0.02,VWS V14.01,2013-03-24 01:04:00,
2013-03-23 21:08:00,72.8,70.7,29.75,ESE,120,0.0,8.0,93,0.00,,---,0.02,VWS V14.01,2013-03-24 01:08:00,
2013-03-23 21:09:00,72.7,70.6,29.75,ESE,122,0.0,8.0,93,0.00,,---,0.02,VWS V14.01,2013-03-24 01:09:00,
2013-03-23 21:10:00,72.7,70.6,29.75,ESE,122,0.0,8.0,93,0.00,,---,0.02,VWS V14.01,2013-03-24 01:10:00,
2013-03-23 21:14:00,72.7,70.6,29.75,ESE,121,0.0,8.0,93,0.00,,---,0.02,VWS V14.01,2013-03-24 01:14:00,
2013-03-23 21:17:00,72.7,70.6,29.75,ESE,122,0.0,8.0,93,0.00,,---,0.02,VWS V14.01,2013-03-24 01:17:00,
2013-03-23 21:21:00,72.5,70.4,29.75,ESE,110,0.0,8.0,93,0.00,,---,0.02,VWS V14.01,2013-03-24 01:21:00,
2013-03-23 21:23:00,72.5,70.4,29.75,ESE,110,0.0,8.0,93,0.00,,---,0.02,VWS V14.01,2013-03-24 01:23:00,
2013-03-23 21:24:00,72.5,70.4,29.75,ESE,110,0.0,8.0,93,0.00,,---,0.02,VWS V14.01,2013-03-24 01:24:00,
2013-03-23 21:26:00,72.3,70.2,29.75,ESE,110,0.0,8.0,93,0.00,,---,0.02,VWS V14.01,2013-03-24 01:26:00,
2013-03-23 21:29:00,72.3,70.2,29.75,ESE,110,0.0,8.0,93,0.00,,---,0.02,VWS V14.01,2013-03-24 01:29:00,
2013-03-23 21:30:00,72.3,70.2,29.75,ESE,110,0.0,8.0,93,0.00,,---,0.02,VWS V14.01,2013-03-24 01:30:00,
2013-03-23 21:32:00,72.3,70.2,29.75,ESE,120,4.0,8.0,93,0.00,,---,0.02,VWS V14.01,2013-03-24 01:32:00,
2013-03-23 21:38:00,72.3,70.5,29.75,ESE,120,1.0,8.0,94,0.00,,---,0.02,VWS V14.01,2013-03-24 01:38:00,
2013-03-23 21:40:00,72.3,70.5,29.75,SE,126,0.0,8.0,94,0.00,,---,0.02,VWS V14.01,2013-03-24 01:40:00,
2013-03-23 21:43:00,72.1,70.3,29.75,SE,126,0.0,8.0,94,0.00,,---,0.02,VWS V14.01,2013-03-24 01:43:00,
2013-03-23 21:44:00,72.1,70.3,29.75,SE,126,0.0,8.0,94,0.00,,---,0.02,VWS V14.01,2013-03-24 01:44:00,
2013-03-23 21:47:00,72.1,70.3,29.75,SE,126,0.0,8.0,94,0.00,,---,0.02,VWS V14.01,2013-03-24 01:47:00,
2013-03-23 21:50:00,72.1,70.3,29.76,SE,126,2.0,8.0,94,0.00,,---,0.02,VWS V14.01,2013-03-24 01:50:00,
2013-03-23 21:51:00,72.1,70.3,29.76,SE,125,0.0,8.0,94,0.00,,---,0.02,VWS V14.01,2013-03-24 01:51:00,
2013-03-23 21:57:00,72.0,70.2,29.76,SE,125,0.0,8.0,94,0.00,,---,0.02,VWS V14.01,2013-03-24 01:57:00,
2013-03-23 21:58:00,72.0,70.2,29.76,SE,125,0.0,8.0,94,0.00,,---,0.02,VWS V14.01,2013-03-24 01:58:00,
2013-03-23 21:59:00,72.0,70.2,29.76,SE,125,0.0,8.0,94,0.00,,---,0.02,VWS V14.01,2013-03-24 01:59:00,
2013-03-23 22:03:00,72.0,70.2,29.76,SE,125,0.0,8.0,94,0.00,,---,0.02,VWS V14.01,2013-03-24 02:03:00,
2013-03-23 22:05:00,72.0,70.2,29.76,SE,125,0.0,8.0,94,0.00,,---,0.02,VWS V14.01,2013-03-24 02:05:00,
2013-03-23 22:08:00,71.8,70.0,29.76,SE,125,0.0,8.0,94,0.00,,---,0.02,VWS V14.01,2013-03-24 02:08:00,
2013-03-23 22:14:00,71.8,70.3,29.76,SE,125,0.0,8.0,95,0.00,,---,0.02,VWS V14.01,2013-03-24 02:14:00,
2013-03-23 22:20:00,71.6,70.1,29.76,SE,125,0.0,8.0,95,0.00,,---,0.02,VWS V14.01,2013-03-24 02:20:00,
2013-03-23 22:22:00,71.6,70.1,29.77,SE,125,0.0,8.0,95,0.00,,---,0.02,VWS V14.01,2013-03-24 02:22:00,
2013-03-23 22:25:00,71.6,70.1,29.77,SE,125,0.0,8.0,95,0.00,,---,0.02,VWS V14.01,2013-03-24 02:25:00,
2013-03-23 22:27:00,71.6,70.1,29.77,SE,125,0.0,8.0,95,0.00,,---,0.02,VWS V14.01,2013-03-24 02:27:00,
2013-03-23 22:28:00,71.6,70.1,29.77,SE,125,0.0,8.0,95,0.00,,---,0.02,VWS V14.01,2013-03-24 02:28:00,
2013-03-23 22:33:00,71.6,70.1,29.77,SE,125,0.0,8.0,95,0.00,,---,0.02,VWS V14.01,2013-03-24 02:33:00,
2013-03-23 22:34:00,71.6,70.1,29.77,SE,125,0.0,8.0,95,0.00,,---,0.02,VWS V14.01,2013-03-24 02:34:00,
2013-03-23 22:38:00,71.6,70.1,29.77,SE,125,0.0,8.0,95,0.00,,---,0.02,VWS V14.01,2013-03-24 02:38:00,
2013-03-23 22:40:00,71.6,70.1,29.77,SE,125,0.0,8.0,95,0.00,,---,0.02,VWS V14.01,2013-03-24 02:40:00,
2013-03-23 22:44:00,71.6,70.1,29.77,SE,125,0.0,8.0,95,0.00,,---,0.02,VWS V14.01,2013-03-24 02:44:00,
2013-03-23 22:47:00,71.6,70.1,29.77,SE,125,0.0,8.0,95,0.00,,---,0.02,VWS V14.01,2013-03-24 02:47:00,
2013-03-23 22:48:00,71.5,70.0,29.77,SE,125,0.0,8.0,95,0.00,,---,0.02,VWS V14.01,2013-03-24 02:48:00,
2013-03-23 22:51:00,71.5,70.0,29.77,SE,125,0.0,8.0,95,0.00,,---,0.02,VWS V14.01,2013-03-24 02:51:00,
2013-03-23 22:53:00,71.5,70.0,29.77,SE,125,0.0,8.0,95,0.00,,---,0.02,VWS V14.01,2013-03-24 02:53:00,
2013-03-23 22:55:00,71.5,70.0,29.77,SE,125,1.0,8.0,95,0.00,,---,0.02,VWS V14.01,2013-03-24 02:55:00,
2013-03-23 22:58:00,71.1,69.9,29.75,ESE,123,0.0,8.0,96,0.00,,---,0.02,VWS V14.01,2013-03-24 02:58:00,
2013-03-23 22:59:00,71.5,70.0,29.77,SE,125,0.0,8.0,95,0.00,,---,0.02,VWS V14.01,2013-03-24 02:59:00,
2013-03-23 23:00:00,71.1,69.9,29.75,ESE,123,0.0,8.0,96,0.00,,---,0.02,VWS V14.01,2013-03-24 03:00:00,
2013-03-23 23:01:00,71.5,70.3,29.77,SE,125,0.0,8.0,96,0.00,,---,0.02,VWS V14.01,2013-03-24 03:01:00,
2013-03-23 23:02:00,71.1,69.9,29.75,ESE,123,0.0,8.0,96,0.00,,---,0.02,VWS V14.01,2013-03-24 03:02:00,
2013-03-23 23:03:00,71.1,69.9,29.75,ESE,123,0.0,8.0,96,0.00,,---,0.02,VWS V14.01,2013-03-24 03:03:00,
2013-03-23 23:04:00,71.1,69.9,29.75,ESE,123,0.0,8.0,96,0.00,,---,0.02,VWS V14.01,2013-03-24 03:04:00,
2013-03-23 23:05:00,70.9,70.0,29.75,ESE,123,0.0,8.0,97,0.00,,---,0.02,VWS V14.01,2013-03-24 03:05:00,
2013-03-23 23:06:00,71.6,70.4,29.77,SE,125,4.0,8.0,96,0.00,,---,0.02,VWS V14.01,2013-03-24 03:06:00,
2013-03-23 23:07:00,71.6,70.4,29.77,SE,125,4.0,8.0,96,0.00,,---,0.02,VWS V14.01,2013-03-24 03:07:00,
2013-03-23 23:08:00,71.6,70.4,29.77,SE,125,1.0,8.0,96,0.00,,---,0.02,VWS V14.01,2013-03-24 03:08:00,
2013-03-23 23:09:00,70.9,70.0,29.75,ESE,123,0.0,8.0,97,0.00,,---,0.02,VWS V14.01,2013-03-24 03:09:00,
2013-03-23 23:11:00,71.6,70.4,29.77,SE,126,0.0,8.0,96,0.00,,---,0.02,VWS V14.01,2013-03-24 03:11:00,
2013-03-23 23:13:00,71.6,70.4,29.77,SE,126,3.0,8.0,96,0.00,,---,0.02,VWS V14.01,2013-03-24 03:13:00,
2013-03-23 23:14:00,70.9,70.0,29.75,ESE,123,0.0,8.0,97,0.00,,---,0.02,VWS V14.01,2013-03-24 03:14:00,
2013-03-23 23:15:00,70.9,70.0,29.75,ESE,123,0.0,8.0,97,0.00,,---,0.02,VWS V14.01,2013-03-24 03:15:00,
2013-03-23 23:16:00,70.9,70.0,29.75,ESE,123,0.0,8.0,97,0.00,,---,0.02,VWS V14.01,2013-03-24 03:16:00,
2013-03-23 23:17:00,71.6,70.4,29.77,SE,126,5.0,8.0,96,0.00,,---,0.02,VWS V14.01,2013-03-24 03:17:00,
2013-03-23 23:18:00,71.6,70.4,29.77,SE,126,0.0,8.0,96,0.00,,---,0.02,VWS V14.01,2013-03-24 03:18:00,
2013-03-23 23:19:00,71.6,70.4,29.77,SE,126,0.0,8.0,96,0.00,,---,0.02,VWS V14.01,2013-03-24 03:19:00,
2013-03-23 23:20:00,70.8,69.9,29.75,ESE,123,0.0,8.0,97,0.00,,---,0.02,VWS V14.01,2013-03-24 03:20:00,
2013-03-23 23:21:00,70.8,69.9,29.75,ESE,123,4.0,8.0,97,0.00,,---,0.02,VWS V14.01,2013-03-24 03:21:00,
2013-03-23 23:23:00,71.6,70.4,29.77,SE,126,0.0,8.0,96,0.00,,---,0.02,VWS V14.01,2013-03-24 03:23:00,
2013-03-23 23:24:00,70.8,69.9,29.75,ESE,123,0.0,8.0,97,0.00,,---,0.02,VWS V14.01,2013-03-24 03:24:00,
2013-03-23 23:25:00,71.6,70.4,29.77,SE,126,0.0,8.0,96,0.00,,---,0.02,VWS V14.01,2013-03-24 03:25:00,
2013-03-23 23:26:00,71.6,70.4,29.77,SE,126,2.0,8.0,96,0.00,,---,0.02,VWS V14.01,2013-03-24 03:26:00,
2013-03-23 23:27:00,70.8,69.9,29.75,ESE,123,3.0,8.0,97,0.00,,---,0.02,VWS V14.01,2013-03-24 03:27:00,
2013-03-23 23:28:00,71.6,70.4,29.77,SE,126,1.0,8.0,96,0.00,,---,0.02,VWS V14.01,2013-03-24 03:28:00,
2013-03-23 23:29:00,71.6,70.4,29.77,SE,126,1.0,8.0,96,0.00,,---,0.02,VWS V14.01,2013-03-24 03:29:00,
2013-03-23 23:30:00,70.8,69.9,29.75,ESE,123,0.0,8.0,97,0.00,,---,0.02,VWS V14.01,2013-03-24 03:30:00,
2013-03-23 23:31:00,70.8,69.9,29.74,ESE,123,0.0,8.0,97,0.00,,---,0.02,VWS V14.01,2013-03-24 03:31:00,
2013-03-23 23:32:00,70.8,69.9,29.74,ESE,123,0.0,8.0,97,0.00,,---,0.02,VWS V14.01,2013-03-24 03:32:00,
2013-03-23 23:33:00,70.8,69.9,29.74,ESE,123,2.0,8.0,97,0.00,,---,0.02,VWS V14.01,2013-03-24 03:33:00,
2013-03-23 23:34:00,71.5,70.3,29.76,SE,126,0.0,8.0,96,0.00,,---,0.02,VWS V14.01,2013-03-24 03:34:00,
2013-03-23 23:35:00,71.5,70.3,29.76,SE,126,0.0,8.0,96,0.00,,---,0.02,VWS V14.01,2013-03-24 03:35:00,
2013-03-23 23:36:00,71.5,70.3,29.76,SE,126,0.0,8.0,96,0.00,,---,0.02,VWS V14.01,2013-03-24 03:36:00,
2013-03-23 23:37:00,71.5,70.3,29.76,SE,126,0.0,8.0,96,0.00,,---,0.02,VWS V14.01,2013-03-24 03:37:00,
2013-03-23 23:38:00,70.6,69.7,29.74,ESE,123,1.0,8.0,97,0.00,,---,0.02,VWS V14.01,2013-03-24 03:38:00,
2013-03-23 23:40:00,71.5,70.3,29.76,SE,126,1.0,8.0,96,0.00,,---,0.02,VWS V14.01,2013-03-24 03:40:00,
2013-03-23 23:41:00,71.5,70.3,29.76,ESE,103,4.0,8.0,96,0.00,,---,0.02,VWS V14.01,2013-03-24 03:41:00,
2013-03-23 23:42:00,71.5,70.3,29.76,ESE,103,2.0,8.0,96,0.00,,---,0.02,VWS V14.01,2013-03-24 03:42:00,
2013-03-23 23:43:00,71.5,70.3,29.76,ESE,103,0.0,8.0,96,0.00,,---,0.02,VWS V14.01,2013-03-24 03:43:00,
2013-03-23 23:44:00,70.6,69.7,29.74,ESE,122,0.0,8.0,97,0.00,,---,0.02,VWS V14.01,2013-03-24 03:44:00,
2013-03-23 23:47:00,70.6,69.7,29.74,ESE,122,0.0,8.0,97,0.00,,---,0.02,VWS V14.01,2013-03-24 03:47:00,
2013-03-23 23:48:00,71.5,70.3,29.75,ESE,109,4.0,8.0,96,0.00,,---,0.02,VWS V14.01,2013-03-24 03:48:00,
2013-03-23 23:49:00,71.5,70.3,29.75,ESE,109,0.0,8.0,96,0.00,,---,0.02,VWS V14.01,2013-03-24 03:49:00,
2013-03-23 23:50:00,70.6,69.7,29.74,ESE,122,0.0,8.0,97,0.00,,---,0.02,VWS V14.01,2013-03-24 03:50:00,
2013-03-23 23:51:00,70.6,69.7,29.74,SE,136,0.0,8.0,97,0.00,,---,0.02,VWS V14.01,2013-03-24 03:51:00,
2013-03-23 23:52:00,70.6,69.7,29.74,SE,136,0.0,8.0,97,0.00,,---,0.02,VWS V14.01,2013-03-24 03:52:00,
2013-03-23 23:53:00,71.3,70.1,29.75,ESE,109,0.0,8.0,96,0.00,,---,0.02,VWS V14.01,2013-03-24 03:53:00,
2013-03-23 23:54:00,71.3,70.1,29.75,ESE,118,0.0,8.0,96,0.00,,---,0.02,VWS V14.01,2013-03-24 03:54:00,
2013-03-23 23:56:00,71.3,70.1,29.75,ESE,122,5.0,8.0,96,0.00,,---,0.02,VWS V14.01,2013-03-24 03:56:00,
2013-03-23 23:58:00,71.3,70.1,29.75,ESE,123,0.0,8.0,96,0.00,,---,0.02,VWS V14.01,2013-03-24 03:58:00,